Location: Zagreb
(45.8000°N, 16.0000°E)
Time: 08:55:48
(UTC+02:00)

Courier 1B - Pass Details

Date: 11 August 2020
Orbit: 962 x 1209 km, 28.3° (Epoch: 27 September)

Event Time Altitude Azimuth Distance (km) Brightness Sun altitude
Rises 18:10:55 0° 206° (SSW) 4,022 11.0 19.4°
Reaches altitude 10° 18:17:06 10° 168° (SSE) 2,994 10.0 18.3°
Maximum altitude 18:18:12 10° 160° (SSE) 2,954 9.8 18.1°
Drops below altitude 10° 18:19:18 10° 151° (SSE) 2,967 9.8 17.9°
Sets 18:25:13 0° 113° (ESE) 3,848 10.0 16.9°
